Date String (YYYY-MM-DD hh:mm:ss) UTC,Instrument flags,absolute air pressure of the measurement (hPa),sample flow rate (lpm),inlet stack bypass flow (lpm),air temperature of the measurement (°C),ambient temperature measured by the external sensor (°C),aerosol sample conditioner tube jacket temperature (°C),OPC LED temperature (°C),internal box temperature (°C),relative humidity of the measurement (%),span deviation,mass concentration of particles derived from Lorenz-Mie calculation of OPC scattering (μg/m³),mass concentration of particles derived from Lorenz-Mie calculation of OPC scattering (μg/m³),mass concentration of particles derived from Lorenz-Mie calculation of OPC scattering (μg/m³)
DateTimeUTC,F1_M11,P_M11,Q1_M11,Q2_M11,T1_M11,T2_M11,T3_M11,T4_M11,T5_M11,U1_M11,ZSPAN_M11,X2_M11,X0_M11,X1_M11
2023-08-22 04:00:00,SystemResetWarning,0834.0,5.00,000.00,027.7,023.5,000.0,035.8,029.1,19.2,0000.9,0007.98,0018.24,0006.68
2023-08-22 04:01:00,SystemResetWarning,0834.0,5.02,000.00,027.6,023.8,000.0,035.8,029.0,18.9,0000.9,0007.98,0018.07,0006.68
2023-08-22 04:02:00,SystemResetWarning,0834.0,5.00,000.00,027.5,024.1,000.0,035.8,028.9,19.0,0001.6,0007.99,0017.34,0006.67
2023-08-22 04:03:00,SystemResetWarning,0834.0,5.00,000.00,027.5,024.6,000.0,035.9,029.1,19.2,0002.0,0008.00,0017.62,0006.67
2023-08-22 04:04:00,SystemResetWarning,0834.0,5.00,000.00,027.5,025.0,000.0,035.9,029.2,19.5,0002.0,0008.02,0018.56,0006.67
2023-08-22 04:05:00,SystemResetWarning,0834.1,5.00,000.00,027.6,025.5,000.0,035.9,029.3,19.6,0002.1,0008.02,0018.13,0006.68
2023-08-22 04:06:00,SystemResetWarning,0834.1,5.00,000.00,027.6,025.8,000.0,036.0,029.4,19.8,0002.0,0008.04,0017.87,0006.69
2023-08-22 04:07:00,SystemResetWarning,0834.1,4.99,000.00,027.7,026.1,000.0,036.0,029.5,20.0,0002.0,0008.05,0017.56,0006.69
2023-08-22 04:08:00,SystemResetWarning,0834.1,4.99,000.00,027.7,026.4,000.0,036.0,029.6,20.4,0001.8,0008.01,0016.86,0006.67
2023-08-22 04:09:00,SystemResetWarning,0834.1,4.99,000.00,027.8,025.7,000.0,036.0,029.5,20.4,0001.9,0008.03,0016.89,0006.66
2023-08-22 04:10:00,SystemResetWarning,0834.1,5.00,000.00,027.7,023.9,000.0,035.9,029.1,20.4,0002.0,0008.08,0016.59,0006.63
2023-08-22 04:11:00,SystemResetWarning,0834.1,5.02,000.00,027.6,023.5,000.0,035.8,029.0,20.5,0002.2,0008.03,0016.46,0006.56
2023-08-22 04:12:00,SystemResetWarning,0834.1,4.99,000.00,027.5,023.8,000.0,035.8,028.9,20.4,0002.6,0007.97,0016.39,0006.50
2023-08-22 04:13:00,SystemResetWarning,0834.1,5.00,000.00,027.5,024.2,000.0,035.8,028.9,20.4,0002.3,0007.88,0016.42,0006.43
2023-08-22 04:14:00,SystemResetWarning,0834.1,5.00,000.00,027.5,024.7,000.0,035.9,029.1,19.9,0001.8,0007.75,0016.32,0006.35
2023-08-22 04:15:00,SystemResetWarning,0834.1,5.00,000.00,027.5,025.1,000.0,035.9,029.2,19.9,0001.6,0007.68,0015.37,0006.27
2023-08-22 04:16:00,SystemResetWarning,0834.0,5.00,000.00,027.6,025.5,000.0,035.9,029.3,19.8,0001.3,0007.65,0015.31,0006.20
2023-08-22 04:17:00,SystemResetWarning,0834.0,4.99,000.00,027.6,025.9,000.0,035.9,029.4,19.8,0001.2,0007.48,0015.00,0006.11
2023-08-22 04:18:00,SystemResetWarning,0834.0,4.99,000.00,027.6,026.1,000.0,036.0,029.5,19.4,0000.9,0007.32,0015.20,0005.98
2023-08-22 04:19:00,SystemResetWarning,0834.0,5.00,000.00,027.7,026.4,000.0,036.0,029.6,19.3,0000.8,0007.24,0015.36,0005.89
2023-08-22 04:20:00,SystemResetWarning,0834.0,5.00,000.00,027.8,026.5,000.0,036.0,029.6,19.3,0000.6,0007.14,0015.18,0005.82
2023-08-22 04:21:00,SystemResetWarning,0834.0,4.99,000.00,027.8,025.3,000.0,036.0,029.4,19.1,0000.4,0007.04,0015.09,0005.76
2023-08-22 04:22:00,SystemResetWarning,0833.9,5.00,000.00,027.7,023.7,000.0,035.9,029.1,19.2,-000.1,0007.01,0015.27,0005.75
2023-08-22 04:23:00,SystemResetWarning,0834.0,5.01,000.00,027.6,023.6,000.0,035.8,029.0,19.2,-000.3,0006.95,0015.46,0005.70
2023-08-22 04:24:00,SystemResetWarning,0833.9,5.01,000.00,027.5,023.9,000.0,035.8,028.9,19.2,-000.5,0006.97,0015.60,0005.66
2023-08-22 04:25:00,SystemResetWarning,0833.9,5.00,000.00,027.5,024.3,000.0,035.8,029.0,19.2,0000.1,0006.97,0016.25,0005.64
2023-08-22 04:26:00,SystemResetWarning,0833.9,4.99,000.00,027.5,024.8,000.0,035.9,029.1,19.2,0000.3,0006.94,0016.23,0005.60
2023-08-22 04:27:00,SystemResetWarning,0834.0,4.99,000.00,027.5,025.2,000.0,035.9,029.3,19.1,-000.0,0006.82,0016.71,0005.57
2023-08-22 04:28:00,SystemResetWarning,0833.9,5.01,000.00,027.6,025.6,000.0,035.9,029.3,19.0,-000.2,0006.85,0017.20,0005.55
2023-08-22 04:29:00,SystemResetWarning,0834.0,5.01,000.00,027.6,025.9,000.0,036.0,029.4,19.0,0000.0,0006.88,0017.07,0005.54
2023-08-22 04:30:00,SystemResetWarning,0834.0,5.00,000.00,027.7,026.2,000.0,036.0,029.5,18.8,0000.5,0006.92,0016.00,0005.55
2023-08-22 04:31:00,SystemResetWarning,0833.9,5.00,000.00,027.7,026.4,000.0,036.0,029.6,18.7,0001.0,0006.89,0015.76,0005.54
2023-08-22 04:32:00,SystemResetWarning,0833.9,5.00,000.00,027.8,026.6,000.0,036.1,029.7,18.4,0000.6,0006.86,0015.52,0005.53
2023-08-22 04:33:00,SystemResetWarning,0833.9,5.00,000.00,027.8,026.8,000.0,036.1,029.7,18.4,0000.7,0006.80,0015.09,0005.49
2023-08-22 04:34:00,SystemResetWarning,0833.9,4.99,000.00,027.9,026.1,000.0,036.1,029.7,18.3,0000.7,0006.81,0015.06,0005.48
2023-08-22 04:35:00,SystemResetWarning,0833.8,4.99,000.00,027.8,024.2,000.0,036.0,029.3,18.3,0001.1,0006.78,0015.07,0005.49
2023-08-22 04:36:00,SystemResetWarning,0833.9,5.02,000.00,027.7,023.6,000.0,035.9,029.2,18.4,0000.9,0006.80,0014.83,0005.49
2023-08-22 04:37:00,SystemResetWarning,0833.8,5.00,000.00,027.7,023.9,000.0,035.9,029.0,18.4,0001.1,0006.84,0014.85,0005.50
2023-08-22 04:38:00,SystemResetWarning,0833.8,4.99,000.00,027.6,024.3,000.0,035.9,029.0,18.6,0001.5,0006.87,0014.09,0005.51
2023-08-22 04:39:00,SystemResetWarning,0833.8,5.00,000.00,027.6,024.7,000.0,036.0,029.2,18.6,0001.6,0006.88,0014.11,0005.53
2023-08-22 04:40:00,SystemResetWarning,0833.8,5.01,000.00,027.6,025.2,000.0,036.0,029.3,18.5,0001.7,0006.91,0015.29,0005.57
2023-08-22 04:41:00,SystemResetWarning,0833.9,5.00,000.00,027.7,025.6,000.0,036.0,029.4,18.5,0001.4,0006.87,0015.66,0005.58
2023-08-22 04:42:00,SystemResetWarning,0833.8,5.00,000.00,027.7,025.9,000.0,036.0,029.5,18.5,0000.9,0006.91,0016.26,0005.60
2023-08-22 04:43:00,SystemResetWarning,0833.9,5.00,000.00,027.7,026.2,000.0,036.1,029.6,18.4,0001.3,0006.96,0016.88,0005.61
2023-08-22 04:44:00,SystemResetWarning,0833.9,5.00,000.00,027.8,026.4,000.0,036.1,029.6,18.2,0001.4,0007.04,0017.75,0005.63
2023-08-22 04:45:00,SystemResetWarning,0833.9,5.00,000.00,027.8,026.6,000.0,036.1,029.7,18.2,0001.3,0007.08,0018.03,0005.64
2023-08-22 04:46:00,SystemResetWarning,0833.9,5.00,000.00,027.9,026.8,000.0,036.2,029.8,18.3,0001.1,0007.07,0018.02,0005.64
2023-08-22 04:47:00,SystemResetWarning,0833.9,4.99,000.00,027.9,025.7,000.0,036.1,029.6,18.4,0000.9,0007.07,0017.77,0005.63
2023-08-22 04:48:00,SystemResetWarning,0833.8,5.00,000.00,027.8,024.0,000.0,036.0,029.3,18.7,0000.6,0007.10,0017.39,0005.64
2023-08-22 04:49:00,SystemResetWarning,0833.8,5.00,000.00,027.8,023.7,000.0,035.9,029.2,19.1,0000.8,0007.15,0017.53,0005.65
2023-08-22 04:50:00,SystemResetWarning,0833.8,5.01,000.00,027.7,024.0,000.0,036.0,029.0,19.2,0000.5,0007.14,0017.38,0005.64
2023-08-22 04:51:00,SystemResetWarning,0833.8,4.99,000.00,027.6,024.4,000.0,036.0,029.1,19.6,0000.2,0007.12,0016.59,0005.61
2023-08-22 04:52:00,SystemResetWarning,0833.8,5.01,000.00,027.6,024.9,000.0,036.0,029.2,19.8,-000.1,0007.16,0016.31,0005.60
2023-08-22 04:53:00,SystemResetWarning,0833.8,5.00,000.00,027.7,025.3,000.0,036.1,029.3,20.0,0000.3,0007.13,0015.63,0005.59
2023-08-22 04:54:00,SystemResetWarning,0833.8,5.00,000.00,027.7,025.6,000.0,036.1,029.4,19.9,0000.8,0007.14,0015.41,0005.58
2023-08-22 04:55:00,SystemResetWarning,0833.8,5.00,000.00,027.7,026.0,000.0,036.1,029.5,19.9,0001.2,0007.10,0014.50,0005.59
2023-08-22 04:56:00,SystemResetWarning,0833.9,5.00,000.00,027.8,026.2,000.0,036.1,029.6,20.0,0001.6,0007.07,0014.21,0005.61
2023-08-22 04:57:00,SystemResetWarning,0833.9,5.00,000.00,027.8,026.5,000.0,036.2,029.7,19.8,0001.8,0007.09,0014.29,0005.61
2023-08-22 04:58:00,SystemResetWarning,0833.9,5.00,000.00,027.9,026.7,000.0,036.2,029.7,19.2,0002.0,0007.10,0014.21,0005.62
2023-08-22 04:59:00,SystemResetWarning,0834.0,4.99,000.00,027.9,026.8,000.0,036.2,029.8,18.4,0002.2,0007.05,0013.97,0005.63
